Location: *
(51.8167°N, 12.5000°E)
Time: 00:43:51
(UTC+00:00)

RESURS DK-1 - Pass Details

Date: 16 September 2019
Orbit: 557 x 561 km, 69.9° (Epoch: 15 October)

Event Time Altitude Azimuth Distance (km) Brightness Sun altitude
Rises 19:30:55 0° 332° (NNW) 2,761 6.9 -19.4°
Reaches altitude 10° 19:33:24 10° 345° (NNW) 1,860 5.7 -19.8°
Maximum altitude 19:36:58 27° 44° (NE) 1,103 3.7 -20.2°
Enters shadow 19:37:20 26° 53° (NE) 1,114 3.7 -20.3°
